Flag for Germany Weather past 2 weeks in Idar-Oberstein, Rhineland-Palatinate, Germany

Now
79 °F

Passing clouds.


Feels Like: 80 °F
Forecast: 67 / 94 °F
Wind: 7 mph from Northeast

Location: Hahn

Current Time: Jul 4, 2015 at 7:20:28 PM

Latest Report: Jul 4, 2015 at 6:50 PM


Visibility: N/A

Pressure: 30.18 "Hg

Humidity: 54%

Dew point: 61 °F

Location of Idar-ObersteinLocation

Historic Weather in Idar-Oberstein — Graph

°F

Idar-Oberstein temperature yesterday

Maximum temperature yesterday: 90 °F (at 4:20 PM)
Minimum temperature yesterday: 66 °F (at 5:50 AM)
Average temperature yesterday: 79 °F

Past Weeks' High & Low Weather Summary

 TemperatureHumidityPressure
High93 °F (Jul 4, 4:50 PM)100% (Jun 20, 7:20 AM)30.30 "Hg (Jun 20, 7:20 AM)
Low43 °F (Jun 23, 3:50 AM)32% (Jun 30, 6:50 PM)29.68 "Hg (Jun 22, 9:50 PM)
Average64 °F69%30.12 "Hg
* Reported Jun 19 6:20 PM — Jul 4 6:20 PM, Idar-Oberstein, Weather by CustomWeather, © 2015

Note: Actual official high and low records may vary slightly from our data, if they occured in-between our weather recording intervals... More about our weather records

Advertising

Idar-Oberstein weather history for previous 24 hours

 ConditionsComfort  
Time TempWeatherWind HumidityBarometerVisibility
6:20 PM
Sat, Jul 4
86 °FScattered showers. Passing clouds.8 mph43%30.18 "HgN/A
5:50 PM88 °FThundershowers. Passing clouds.10 mph40%30.15 "HgN/A
5:20 PM90 °FSunny.10 mph38%30.15 "Hg10 mi
4:50 PM93 °FPassing clouds.9 mph34%30.15 "HgN/A
4:20 PM91 °FPassing clouds.9 mph34%30.18 "HgN/A
3:50 PM91 °FPassing clouds.10 mph36%30.18 "HgN/A
3:20 PM91 °FPassing clouds.9 mph34%30.18 "HgN/A
2:50 PM91 °FPassing clouds.8 mph34%30.18 "HgN/A
2:20 PM91 °FPassing clouds.8 mph32%30.18 "HgN/A
1:50 PM90 °FPassing clouds.7 mph33%30.15 "HgN/A
1:20 PM90 °FPassing clouds.7 mph36%30.18 "HgN/A
12:50 PM88 °FPassing clouds.6 mph38%30.18 "HgN/A
12:20 PM88 °FPassing clouds.6 mph43%30.18 "HgN/A
11:50 AM86 °FPassing clouds.10 mph46%30.15 "HgN/A
11:20 AM84 °FPassing clouds.7 mph48%30.15 "HgN/A
10:50 AM84 °FPassing clouds.8 mph45%30.15 "HgN/A
10:20 AM82 °FPassing clouds.9 mph48%30.15 "HgN/A
9:50 AM81 °FPassing clouds.8 mph54%30.15 "HgN/A
9:20 AM81 °FPassing clouds.9 mph54%30.15 "HgN/A
8:50 AM79 °FPassing clouds.9 mph61%30.15 "HgN/A
8:20 AM75 °FSunny.10 mph69%30.15 "Hg10 mi
7:50 AM75 °FSunny.10 mph65%30.15 "Hg10 mi
7:20 AM75 °FSunny.9 mph65%30.15 "Hg10 mi
6:50 AM75 °FSunny.12 mph65%30.15 "Hg10 mi
6:20 AM73 °FClear.12 mph69%30.15 "Hg10 mi
5:50 AM73 °FPassing clouds.14 mph65%30.15 "HgN/A
5:20 AM72 °FClear.9 mph69%30.15 "Hg10 mi
4:50 AM73 °FClear.9 mph65%30.15 "Hg10 mi
4:20 AM73 °FClear.7 mph69%30.15 "Hg10 mi
3:50 AM72 °FClear.8 mph73%30.15 "Hg10 mi
3:20 AM72 °FPassing clouds.7 mph73%30.18 "HgN/A
2:50 AM73 °FClear.6 mph69%30.18 "Hg10 mi
1:50 AM73 °FClear.6 mph69%30.18 "Hg10 mi
1:20 AM75 °FPassing clouds.9 mph65%30.21 "HgN/A
12:50 AM77 °FClear.6 mph61%30.21 "Hg10 mi
12:20 AM77 °FClear.7 mph61%30.21 "Hg10 mi
11:50 PM
Fri, Jul 3
77 °FClear.3 mph61%30.21 "Hg10 mi
11:20 PM79 °FClear.5 mph58%30.21 "Hg10 mi
10:50 PM81 °FPassing clouds.3 mph54%30.21 "HgN/A
10:20 PM81 °FSunny.3 mph54%30.21 "Hg10 mi
9:50 PM81 °FSunny.3 mph54%30.21 "Hg10 mi
9:20 PM82 °FSunny.3 mph55%30.21 "Hg10 mi
8:50 PM82 °FSunny.6 mph58%30.21 "Hg10 mi
8:20 PM84 °FSunny.5 mph55%30.21 "Hg10 mi
7:50 PM86 °FPassing clouds.7 mph49%30.21 "HgN/A
7:20 PM88 °FPassing clouds.6 mph43%30.21 "HgN/A
Weather by CustomWeather, © 2015

See weather overviewHow to use our weather pages